User: anonymous   Login
Location: Pine Mountain Observatory
(43.7910°N, 120.9377°W)
Time: 16:15:09
(UTC-08:00)
Language:

Cosmos 1076 Rocket - Orbit

View from above orbital plane
View from above orbital plane
View from above satellite
View from above satellite

Ground track
Ground track

The orbit data is extracted from the following two-line orbital elements,

1 11267U 79011B   17053.17402581  .00000103  00000-0  83824-5 0  9993
2 11267  82.5280 338.0656 0015416 250.6818 109.2733 14.88820185 58353
Epoch (UTC): 22 February 2017 04:10:35
Eccentricity: 0.0015416
inclination: 82.5280°
perigee height: 591 km
apogee height: 612 km
right ascension of ascending node: 338.0656°
argument of perigee: 250.6818°
revolutions per day: 14.88820185
mean anomaly at epoch: 109.2733°
orbit number at epoch: 5835

The dashed part of the orbit path shows where the satellite is in the earth's shadow,  

DLR